Probability
0 3 7 10 9 6 4 4 4 4 2 1 1 1 0 0 0 0 0 0 0 0 0 0 0 1 2 2 1 0 0 0 0 0 0 0 0 1 1 1 0 0 0
2 4 10 14 12 9 6 4 4 5 5 3 2 1 0 0 0 0 0 0 0 0 0 0 0 1 3 2 1 0 0 0 0 0 0 0 0 0 0 0 0 0 0
4 7 13 18 17 13 9 6 4 5 6 5 4 2 1 1 1 0 0 0 0 0 0 0 1 2 3 2 1 0 0 0 0 0 0 0 0 0 0 0 0 0 0
7 9 14 19 19 16 11 7 4 4 4 5 5 4 3 2 2 1 0 0 0 0 0 0 1 3 3 2 1 0 0 0 0 0 0 0 0 0 0 0 0 0 0
9 11 15 19 20 18 13 8 4 3 3 4 4 4 3 3 3 2 1 0 0 0 0 1 2 3 3 2 1 0 0 0 0 0 0 0 0 0 0 0 0 0 0
12 14 18 21 22 19 15 10 6 4 3 3 3 3 3 3 2 2 1 0 0 0 0 2 3 3 2 1 0 0 0 0 0 0 0 0 0 0 0 0 0 0 0
15 16 20 24 23 19 16 12 9 5 4 3 2 2 2 1 1 1 0 0 0 0 1 3 3 2 1 0 0 0 0 0 0 0 0 0 0 0 0 0 0 0 0
18 19 20 23 22 20 18 15 11 8 7 5 2 2 2 1 1 1 1 0 0 0 1 3 2 0 0 0 0 0 0 0 0 0 0 0 0 0 0 0 0 0 0
21 20 19 19 20 19 17 14 11 9 9 7 5 4 3 2 1 1 1 0 0 0 0 1 0 0 0 0 0 0 0 0 0 0 0 0 0 0 0 0 0 0 0
21 20 19 17 17 16 15 12 10 9 8 7 5 5 4 2 1 1 1 1 0 0 1 1 1 0 0 0 0 0 0 0 0 0 0 0 0 0 0 0 0 0 0
19 19 18 15 14 13 11 9 8 7 6 5 4 4 4 3 2 2 1 0 0 1 2 2 1 0 0 0 0 0 0 0 0 0 0 0 0 0 0 0 0 0 0
16 17 17 14 13 11 9 6 5 4 4 3 3 3 3 3 3 2 1 0 1 2 3 2 1 0 0 0 0 0 0 0 0 0 0 0 0 0 0 0 0 0 0
14 14 14 13 11 9 6 4 3 3 3 3 3 3 3 3 3 1 0 1 2 2 2 1 0 0 0 0 0 0 0 0 0 0 0 0 0 0 0 0 0 0 0
13 12 11 11 9 6 4 3 3 3 3 3 3 3 3 3 2 1 0 1 1 1 1 0 0 0 0 0 0 0 0 0 0 0 0 0 0 0 0 0 0 0 0
12 11 9 8 7 5 3 3 3 3 3 3 3 3 3 3 3 1 1 1 1 0 0 0 0 0 0 0 0 0 0 0 0 0 0 0 0 0 0 0 0 0 0
10 10 8 6 6 4 3 3 3 3 3 3 3 3 3 3 3 3 2 1 0 0 0 0 0 0 0 0 0 0 0 0 0 0 0 0 0 0 0 0 0 0 0
8 7 6 4 4 3 3 3 3 3 3 3 3 3 3 3 3 3 2 1 0 0 0 0 0 0 0 0 0 0 0 0 0 0 0 0 0 0 0 0 0 0 0
8 6 3 3 3 3 3 3 3 3 3 3 3 3 3 3 3 2 1 0 0 0 0 0 0 0 0 0 0 0 0 0 0 0 0 0 0 0 0 0 0 0 0
8 5 2 2 2 2 2 2 2 2 2 2 3 3 3 2 1 1 0 0 0 0 0 0 0 0 0 0 0 0 0 0 0 0 0 0 0 0 0 0 0 0 0
7 4 2 1 1 1 1 1 1 1 1 1 1 2 2 1 0 0 0 0 0 0 0 0 0 0 0 0 0 0 0 0 0 0 0 0 0 0 0 0 0 0 0
6 4 2 1 0 0 0 0 0 0 0 0 0 1 1 0 0 0 0 0 0 0 0 0 0 0 0 0 0 0 0 0 0 0 0 0 0 0 0 0 0 0 0
4 4 2 1 0 0 0 0 0 0 0 0 0 0 0 0 0 0 0 0 0 0 0 0 0 0 0 0 0 0 0 0 0 0 0 0 0 0 0 0 0 0 0
2 3 2 1 0 0 0 0 0 0 0 0 0 0 0 0 0 0 0 0 0 0 0 0 0 0 0 0 0 0 0 0 0 0 0 0 0 0 0 0 0 0 0
1 2 2 1 0 0 0 0 0 0 0 0 0 0 0 0 0 0 0 0 0 0 0 0 0 0 0 0 0 0 0 0 0 0 0 0 0 0 0 0 0 0 0
0 1 2 1 0 0 0 0 0 0 0 0 0 0 0 0 0 0 0 0 0 0 0 0 0 0 0 0 0 0 0 0 0 0 0 0 0 0 0 0 0 0 0
0 1 2 1 0 0 0 0 0 0 0 0 0 0 0 0 0 0 0 0 0 0 0 0 0 0 0 0 0 0 0 0 0 0 0 0 0 0 0 0 0 0 0
Wind_Speed
4 4 8 9 10 10 10 11 11 11 11 11 12 12 12 12 13 13 13 13 14 14 14 14 15 14 14 14 15 15 15 15 14 14 14 13 13 14 14 13 12 9 14
7 6 9 10 11 11 11 11 11 11 11 11 12 12 12 13 13 13 13 14 14 14 14 14 14 15 15 15 14 15 15 14 14 14 12 11 11 13 13 13 12 9 14
9 6 8 10 12 12 12 12 12 11 11 12 12 12 12 13 13 13 14 14 14 14 14 14 14 14 14 15 14 14 14 14 14 13 11 6 7 12 13 12 12 13 13
9 7 7 11 12 12 12 12 12 12 12 12 12 12 13 13 13 13 14 14 14 14 14 14 14 14 14 14 15 15 15 15 14 12 7 5 5 11 12 12 12 13 13
8 6 8 12 13 13 13 12 12 12 12 12 12 13 13 14 14 14 14 14 13 13 14 14 13 14 14 14 15 15 15 15 14 11 6 6 5 11 12 12 12 12 12
8 6 8 13 13 13 13 12 12 12 12 12 12 13 13 13 14 14 14 13 13 13 13 13 13 14 14 15 15 15 15 14 11 7 6 6 5 11 12 12 12 12 12
8 6 8 12 13 13 13 13 12 12 12 12 12 13 13 13 13 13 13 13 13 12 13 13 14 14 14 15 15 15 15 14 9 7 6 6 7 12 13 12 12 12 12
9 7 7 12 12 12 13 13 13 13 12 12 12 12 12 13 13 13 13 13 13 12 12 13 14 14 14 14 14 15 14 12 9 8 6 6 10 12 12 12 12 12 12
8 7 5 6 8 10 11 12 13 13 12 12 12 12 12 12 12 13 13 13 13 12 12 13 13 13 14 14 14 14 14 13 7 5 6 5 10 12 12 12 11 11 11
7 6 6 6 6 6 7 11 12 12 12 12 12 12 12 11 11 12 11 12 12 13 13 13 13 13 14 13 14 14 13 10 6 6 4 5 10 11 11 11 11 10 11
7 6 6 6 6 5 6 8 9 10 11 11 9 11 9 5 5 7 9 11 12 12 12 13 13 14 13 13 13 13 10 5 5 4 4 8 10 10 10 10 10 10 10
8 6 6 6 6 6 5 5 4 5 5 5 5 5 4 4 5 6 9 11 11 12 12 13 13 12 10 6 8 10 5 6 5 4 5 10 10 10 10 10 9 9 9
8 8 6 6 6 6 5 4 3 3 3 4 5 5 4 4 4 4 3 5 6 8 6 7 7 5 5 4 4 5 5 5 4 4 5 10 10 10 10 9 8 8 8
8 8 7 7 7 6 5 4 4 3 3 3 3 4 4 3 3 3 3 3 3 3 4 4 3 4 5 5 5 5 5 4 4 3 5 10 10 9 9 9 8 8 8
8 8 7 8 8 7 6 4 4 4 3 3 3 3 4 3 3 3 3 3 3 3 3 3 4 5 5 5 5 6 5 5 5 4 4 8 9 9 9 9 9 8 8
9 8 7 8 8 8 6 5 4 4 4 3 3 3 4 3 3 3 3 3 3 3 3 3 4 4 3 4 5 5 5 4 5 5 4 5 9 9 10 9 9 9 9
9 9 8 8 8 8 7 6 5 4 4 3 3 3 4 4 4 4 3 3 2 3 4 4 4 4 4 4 5 5 4 4 4 5 4 4 5 8 10 10 10 9 9
9 9 9 8 8 8 7 6 4 4 4 3 3 3 4 4 4 4 3 3 2 3 3 3 3 4 4 4 3 3 4 4 5 5 4 4 4 4 7 11 11 11 10
10 10 9 8 8 7 7 5 5 4 4 3 3 3 3 4 4 4 3 3 3 3 3 3 3 3 3 3 3 3 3 3 4 5 5 5 5 5 5 8 11 12 11
8 9 9 8 8 7 6 5 4 4 3 3 3 3 4 3 4 4 3 3 3 3 3 3 3 3 2 2 3 4 3 3 3 4 5 4 5 6 5 6 5 7 11
7 9 10 9 7 7 5 5 5 4 3 3 2 3 3 4 4 4 4 3 3 3 3 3 3 4 2 2 3 3 3 3 3 3 3 4 5 5 5 5 4 4 5
9 9 9 9 9 7 5 4 3 4 3 3 2 3 3 3 4 4 4 3 3 3 4 3 3 2 1 2 2 2 1 2 3 3 3 3 4 4 5 6 5 5 4
9 9 9 9 9 7 6 5 4 4 3 2 2 2 2 3 4 4 4 4 3 3 3 3 3 3 2 1 2 2 2 1 1 2 2 3 3 3 3 3 5 5 5
7 7 8 9 8 8 8 8 8 6 5 4 3 2 3 3 4 4 4 4 3 3 3 3 2 2 3 1 1 2 1 2 2 1 2 2 3 3 3 3 3 4 4
6 7 7 8 8 8 7 8 8 5 4 4 4 4 3 2 3 3 4 4 3 3 3 3 2 2 2 2 1 1 2 2 1 1 1 3 3 2 2 2 2 2 4
4 5 6 7 7 8 8 7 7 7 7 7 6 5 3 2 2 2 3 3 3 3 3 3 2 3 2 2 1 1 1 1 0 1 0 2 2 2 3 2 1 2 3
Wind_Direction
173 178 150 135 121 113 107 101 94 89 85 82 79 75 74 73 72 72 71 70 70 69 69 68 69 70 70 70 71 72 73 72 71 69 66 68 73 78 78 76 72 69 74
153 161 145 135 124 117 111 104 97 92 88 85 81 78 75 75 74 73 72 71 70 69 68 68 68 68 69 70 69 71 73 72 71 67 62 61 68 77 79 78 78 80 78
141 148 144 133 125 119 112 107 102 96 92 88 84 81 76 76 75 75 72 71 70 68 69 68 68 67 68 70 70 72 73 72 70 65 58 49 63 75 79 79 80 82 81
138 140 142 132 126 121 115 110 105 100 95 92 87 83 78 77 76 75 73 72 70 69 70 69 67 68 68 69 71 71 71 69 66 61 52 43 54 74 78 80 82 81 80
132 135 143 131 127 122 117 112 107 103 98 94 90 86 81 79 77 74 73 73 72 71 71 70 68 67 67 68 70 70 69 65 61 54 44 40 48 72 76 78 79 81 80
131 134 143 131 128 123 117 113 108 104 100 97 94 89 83 81 78 74 72 74 73 73 73 72 70 68 67 68 69 69 67 64 56 51 45 41 47 71 74 77 77 80 80
133 132 139 131 130 126 121 116 111 107 103 100 96 92 86 82 79 76 74 74 74 74 76 74 72 70 68 68 68 66 66 61 56 51 47 43 54 67 71 73 74 78 79
131 129 132 130 126 125 123 118 113 108 103 99 95 91 87 84 81 77 74 71 72 74 75 75 73 71 69 67 66 65 62 59 55 50 45 45 56 65 70 70 71 74 77
126 125 122 125 124 122 118 115 111 107 102 97 94 89 85 82 81 77 73 71 70 73 75 74 73 71 69 68 67 63 61 57 51 46 45 44 54 62 67 67 67 69 75
124 124 122 119 117 117 119 113 109 105 100 95 90 84 79 77 78 76 71 71 71 70 71 71 70 69 67 66 64 61 57 50 45 42 38 48 55 61 63 64 64 65 69
133 132 128 125 119 115 115 112 107 101 96 92 88 84 77 68 70 72 67 71 71 69 68 69 69 66 63 61 59 55 50 42 41 40 37 51 55 58 60 60 60 60 62
155 147 138 134 130 123 117 108 101 94 93 87 88 87 81 76 70 71 65 67 68 65 64 64 63 60 56 51 50 47 44 39 41 35 43 49 53 54 56 57 57 58 56
159 152 147 143 138 131 123 117 104 99 97 91 92 92 89 82 74 64 67 59 57 56 54 54 51 46 51 50 47 45 41 40 37 29 38 46 50 52 53 55 55 56 54
155 155 151 148 141 135 129 126 121 116 110 104 100 101 98 93 82 74 69 64 56 53 57 53 55 52 54 53 52 48 42 40 38 28 37 43 44 46 49 50 53 54 53
161 158 157 152 148 141 133 134 127 127 124 118 111 104 109 109 103 92 80 71 64 61 62 59 60 58 55 52 51 49 43 39 38 32 26 40 42 41 43 44 45 49 50
169 164 158 158 153 144 140 139 137 133 129 121 117 115 112 112 111 106 94 81 71 65 61 63 63 60 54 55 51 45 43 37 39 35 27 27 37 39 40 41 40 43 46
172 166 162 160 154 149 144 144 137 136 131 127 124 119 115 112 113 111 104 89 76 73 69 70 63 60 59 54 46 37 41 39 37 35 33 27 20 29 36 38 37 37 38
167 167 167 162 156 153 146 142 138 136 133 130 129 126 121 117 117 112 108 97 88 81 78 79 70 66 55 49 40 29 30 34 33 34 38 35 30 21 26 36 33 32 32
170 167 166 163 158 153 144 137 133 130 130 129 127 128 127 122 121 116 112 110 101 90 81 81 68 71 69 54 44 36 27 30 25 37 38 39 37 33 26 29 29 28 27
166 162 163 159 156 148 138 128 122 118 122 121 122 133 131 128 125 119 116 111 106 100 85 88 88 71 75 66 62 43 25 24 30 39 38 36 33 34 32 29 20 20 23
162 164 164 156 154 152 149 150 146 151 144 127 120 120 125 129 126 125 120 116 111 108 106 109 109 88 61 57 66 44 22 25 41 39 32 36 35 29 29 30 26 21 9
171 170 165 161 160 162 157 154 146 140 136 126 119 108 113 127 127 126 123 124 119 112 107 110 113 94 64 29 79 82 41 7 13 18 22 39 30 23 27 29 28 27 14
175 173 170 168 164 160 146 132 123 108 101 113 129 128 118 128 121 118 122 123 124 125 132 135 127 115 122 21 43 111 133 191 322 343 10 25 23 21 15 17 26 19 14
183 170 165 164 162 158 155 155 156 159 161 167 157 141 121 123 121 124 128 126 130 130 135 144 108 112 126 118 35 40 81 145 150 314 333 360 4 8 5 9 13 9 12
170 167 164 160 159 158 161 164 161 160 151 137 136 131 131 123 124 131 134 130 134 133 134 132 114 108 114 128 123 80 55 41 69 144 289 329 346 345 346 346 358 1 7
145 154 156 158 162 162 163 164 165 163 156 150 153 154 155 139 129 134 132 131 133 135 140 139 129 116 109 104 100 100 119 115 88 118 213 314 320 320 334 338 357 7 8